This demonstration page uses our WeatherBlox Daily Observations layout. Learn more.

Left ArrowRight Arrow

53.62937, 11.41316

Hourly Observations for June 30, 2019

Temp ( °F °C ) Dew Point ( °F °C ) Humidity (%) Winds ( mph kmh ) Pressure ( in mb ) Visibility ( mi km ) Precip ( " mm )
6:50 am 06:50 Mostly Sunny 68 20 54 12 60 60 S 5 7 29.88 1012 7 11 N/A
7:20 am 07:20 Mostly Sunny 70 21 55 13 60 60 S 6 9 29.85 1011 7 11 N/A
7:50 am 07:50 Mostly Sunny 73 23 57 14 57 57 S 6 9 29.85 1011 7 11 N/A
8:20 am 08:20 Mostly Sunny 75 24 55 13 50 50 S 6 9 29.85 1011 7 11 N/A
8:50 am 08:50 Mostly Sunny 77 25 55 13 47 47 SSW 8 13 29.85 1011 7 11 N/A
9:20 am 09:20 Mostly Sunny 79 26 55 13 45 45 SSW 8 13 29.82 1010 7 11 N/A
9:50 am 09:50 Mostly Sunny 81 27 57 14 45 45 SSW 12 19 29.82 1010 7 11 N/A
10:20 am 10:20 Mostly Sunny 84 29 59 15 43 43 S 10 17 29.82 1010 7 11 N/A
10:50 am 10:50 Mostly Sunny 84 29 57 14 40 40 SSW 10 17 29.82 1010 7 11 N/A
11:20 am 11:20 Mostly Sunny 86 30 57 14 38 38 SSW 10 17 29.82 1010 7 11 N/A
11:50 am 11:50 Mostly Sunny 88 31 57 14 35 35 SSW 9 15 29.79 1009 7 11 N/A
12:20 pm 12:20 Mostly Sunny 90 32 57 14 33 33 SSW 12 19 29.79 1009 7 11 N/A
12:50 pm 12:50 Mostly Sunny 91 33 55 13 30 30 SSW 12 19 29.79 1009 7 11 N/A
1:20 pm 13:20 Mostly Sunny 91 33 55 13 30 30 SW 12 19 29.79 1009 7 11 N/A
1:50 pm 13:50 Mostly Sunny 93 34 54 12 26 26 WSW 18 30 29.76 1008 7 11 N/A
2:20 pm 14:20 Mostly Sunny 95 35 55 13 26 26 SW 15 24 29.76 1008 7 11 N/A
2:50 pm 14:50 Mostly Sunny 95 35 57 14 28 28 WSW 16 26 29.76 1008 7 11 N/A
3:20 pm 15:20 Mostly Sunny 90 32 63 17 41 41 W 20 31 29.79 1009 7 11 N/A
3:50 pm 15:50 Mostly Sunny 86 30 64 18 49 49 W 16 26 29.79 1009 7 11 N/A
4:20 pm 16:20 Mostly Sunny 82 28 64 18 55 55 W 14 22 29.82 1010 7 11 N/A
4:50 pm 16:50 Mostly Sunny 82 28 64 18 55 55 W 14 22 29.82 1010 7 11 N/A
5:20 pm 17:20 Mostly Sunny 81 27 63 17 54 54 W 15 24 29.85 1011 7 11 N/A
5:50 pm 17:50 Mostly Sunny 79 26 59 15 51 51 W 12 19 29.85 1011 7 11 N/A
6:20 pm 18:20 Mostly Sunny 77 25 57 14 51 51 W 13 20 29.85 1011 7 11 N/A
6:50 pm 18:50 Mostly Sunny 77 25 50 10 39 39 W 13 20 29.88 1012 7 11 N/A
7:20 pm 19:20 Mostly Sunny 73 23 54 12 50 50 W 9 15 29.88 1012 7 11 N/A
7:50 pm 19:50 Mostly Sunny 72 22 55 13 57 57 W 13 20 29.88 1012 7 11 N/A
8:20 pm 20:20 Mostly Sunny 70 21 55 13 60 60 W 7 11 29.91 1013 7 11 N/A
8:50 pm 20:50 Mostly Sunny 70 21 55 13 60 60 W 8 13 29.91 1013 7 11 N/A

Powered by AerisWeather